This demonstration page uses our WeatherBlox Daily Observations layout. Learn more.

Left ArrowRight Arrow

38.20091, -84.87328

Hourly Observations for March 24, 2022

Temp ( °F °C ) Dew Point ( °F °C ) Humidity (%) Winds ( mph kmh ) Pressure ( in mb ) Visibility ( mi km ) Precip ( " mm )
12:53 am 00:53 Cloudy 50 10 N/A N/A SW 15 24 29.81 1009 10 16 0.00 0.00
1:53 am 01:53 Cloudy 50 10 N/A N/A SW 8 13 29.81 1010 10 16 0.00 0.00
2:53 am 02:53 Cloudy 46 8 N/A N/A SW 21 33 29.83 1010 10 16 0.00 0.00
3:23 am 03:23 Cloudy 46 8 N/A N/A SW 12 19 29.86 1011 10 16 0.00 0.00
3:53 am 03:53 Cloudy 46 8 N/A N/A SSW 15 24 29.84 1010 10 16 0.00 0.00
4:37 am 04:37 Cloudy 46 8 N/A N/A SW 10 17 29.87 1011 10 16 0.00 0.00
4:53 am 04:53 Cloudy 46 8 N/A N/A SW 17 28 29.84 1010 10 16 0.00 0.00
5:31 am 05:31 Cloudy 46 8 N/A N/A SW 20 31 29.87 1011 10 16 0.00 0.00
5:53 am 05:53 Cloudy 46 8 N/A N/A SW 13 20 29.84 1011 10 16 0.00 0.00
6:53 am 06:53 Mostly Cloudy 46 8 N/A N/A SSW 14 22 29.86 1011 10 16 0.00 0.00
7:53 am 07:53 Partly Cloudy 44 6.7 36 2.2 73 73 SW 9 15 29.86 1011 10 16 0.00 0.00
8:53 am 08:53 Sunny 45 7.2 36 2.2 71 71 SSW 10 17 29.87 1012 10 16 0.00 0.00
9:53 am 09:53 Partly Cloudy 47 8.3 35 1.7 63 63 SW 15 24 29.88 1012 10 16 0.00 0.00
10:53 am 10:53 Mostly Sunny 50 10 37 2.8 61 61 SW 14 22 29.88 1012 10 16 0.00 0.00
11:53 am 11:53 Sunny 53 11.7 34 1.1 48 48 SW 14 22 29.85 1011 10 16 0.00 0.00
12:53 pm 12:53 Mostly Cloudy 54 12.2 33 0.6 45 45 SW 17 28 29.84 1011 10 16 0.00 0.00
1:53 pm 13:53 Mostly Cloudy 56 13.3 31 -0.6 39 39 SW 16 26 29.81 1010 10 16 0.00 0.00
2:53 pm 14:53 Cloudy 56 13.3 29 -1.7 36 36 SW 20 31 29.79 1009 10 16 0.00 0.00
3:53 pm 15:53 Cloudy 53 11.7 33 0.6 47 47 W 20 31 29.80 1009 10 16 0.00 0.00
4:53 pm 16:53 Cloudy 52 11.1 37 2.8 57 57 SSW 9 15 29.80 1009 10 16 0.00 0.00
5:53 pm 17:53 Mostly Cloudy 55 12.8 35 1.7 47 47 SW 18 30 29.80 1009 10 16 0.00 0.00
6:53 pm 18:53 Cloudy 53 11.7 32 0 45 45 W 9 15 29.82 1010 10 16 0.00 0.00
7:53 pm 19:53 Cloudy 52 11.1 31 -0.6 45 45 W 8 13 29.83 1010 10 16 0.00 0.00
8:53 pm 20:53 Cloudy 50 10 32 0 50 50 WNW 12 19 29.86 1011 10 16 0.00 0.00
9:53 pm 21:53 Mostly Cloudy 48 8.9 32 0 54 54 W 6 9 29.87 1012 10 16 0.00 0.00
10:53 pm 22:53 Clear 45 7.2 32 0 61 61 W 5 7 29.87 1012 10 16 0.00 0.00
11:53 pm 23:53 Clear 43 6.1 32 0 65 65 WSW 5 7 29.87 1012 10 16 0.00 0.00

Powered by AerisWeather